Anzahl Datensätze: 282
min. Temperatur: -1.2 °C
max. Temperatur: 3.2 °C
max. Windgeschwindigkeit: 4.9 km/h
Niederschlagsumme: 14.0 mm
| Datum |
Zeit |
Temp °C |
Feuchte % |
Taupunkt °C |
Luftdruck hPa |
Wind km/h |
Windrichtung |
Strahlung w/m² |
Niederschlag mm |
|---|---|---|---|---|---|---|---|---|---|
| 08.01.2026 | 00:01 | -1.2 | 94 | -2.0 | 1010.1 | 1.3 | SSO | 0 | 0.0 |
| 08.01.2026 | 00:06 | -1.2 | 94 | -2.0 | 1010.1 | 1.3 | S | 0 | 0.0 |
| 08.01.2026 | 00:11 | -1.1 | 94 | -1.9 | 1010.2 | 1.3 | SSW | 0 | 0.0 |
| 08.01.2026 | 00:16 | -1.1 | 94 | -1.9 | 1010.1 | 1.3 | S | 0 | 0.0 |
| 08.01.2026 | 00:21 | -1.1 | 94 | -1.9 | 1010.0 | 1.8 | S | 0 | 0.0 |
| 08.01.2026 | 00:26 | -1.1 | 94 | -1.9 | 1009.9 | 1.3 | S | 0 | 0.0 |
| 08.01.2026 | 00:31 | -1.1 | 94 | -1.9 | 1009.8 | 2.2 | S | 0 | 0.0 |
| 08.01.2026 | 00:36 | -1.0 | 94 | -1.8 | 1009.8 | 0.9 | S | 0 | 0.0 |
| 08.01.2026 | 00:41 | -1.0 | 94 | -1.8 | 1009.8 | 1.3 | SSW | 0 | 0.0 |
| 08.01.2026 | 00:46 | -1.0 | 94 | -1.8 | 1009.9 | 1.8 | SSW | 0 | 0.0 |
| 08.01.2026 | 00:51 | -1.0 | 94 | -1.8 | 1009.9 | 1.3 | S | 0 | 0.0 |
| 08.01.2026 | 00:56 | -1.0 | 94 | -1.8 | 1009.8 | 1.3 | S | 0 | 0.0 |
| 08.01.2026 | 01:01 | -0.9 | 94 | -1.7 | 1009.8 | 1.3 | SW | 0 | 0.0 |
| 08.01.2026 | 01:07 | -0.9 | 94 | -1.7 | 1009.7 | 3.6 | SSW | 0 | 0.0 |
| 08.01.2026 | 01:12 | -0.9 | 94 | -1.7 | 1009.7 | 1.3 | SSO | 0 | 0.0 |
| 08.01.2026 | 01:17 | -0.9 | 94 | -1.7 | 1009.6 | 0.9 | S | 0 | 0.0 |
| 08.01.2026 | 01:22 | -0.9 | 94 | -1.7 | 1009.6 | 1.3 | SSW | 0 | 0.0 |
| 08.01.2026 | 01:27 | -0.8 | 94 | -1.6 | 1009.7 | 1.8 | S | 0 | 0.0 |
| 08.01.2026 | 01:32 | -0.8 | 94 | -1.6 | 1009.6 | 2.2 | SSO | 0 | 0.0 |
| 08.01.2026 | 01:37 | -0.7 | 94 | -1.5 | 1009.6 | 0.9 | SSW | 0 | 0.0 |
| 08.01.2026 | 01:42 | -0.7 | 94 | -1.5 | 1009.6 | 0.4 | S | 0 | 0.0 |
| 08.01.2026 | 01:47 | -0.6 | 94 | -1.4 | 1009.7 | 0.9 | S | 0 | 0.0 |
| 08.01.2026 | 01:52 | -0.6 | 94 | -1.4 | 1009.6 | 1.3 | S | 0 | 0.0 |
| 08.01.2026 | 01:57 | -0.6 | 94 | -1.4 | 1009.5 | 0.9 | SSW | 0 | 0.0 |
| 08.01.2026 | 02:02 | -0.5 | 94 | -1.3 | 1009.6 | 1.3 | SSW | 0 | 0.0 |
| 08.01.2026 | 02:07 | -0.5 | 94 | -1.3 | 1009.7 | 0.4 | SSO | 0 | 0.0 |
| 08.01.2026 | 02:12 | -0.5 | 94 | -1.3 | 1009.6 | 0.4 | S | 0 | 0.0 |
| 08.01.2026 | 02:17 | -0.5 | 94 | -1.3 | 1009.6 | 1.3 | S | 0 | 0.0 |
| 08.01.2026 | 02:22 | -0.5 | 94 | -1.3 | 1009.7 | 1.8 | S | 0 | 0.0 |
| 08.01.2026 | 02:27 | -0.4 | 94 | -1.2 | 1009.7 | 0.4 | S | 0 | 0.0 |
| 08.01.2026 | 02:32 | -0.4 | 94 | -1.2 | 1009.6 | 1.3 | SSW | 0 | 0.0 |
| 08.01.2026 | 02:37 | -0.3 | 94 | -1.1 | 1009.7 | 0.9 | S | 0 | 0.0 |
| 08.01.2026 | 02:42 | -0.3 | 94 | -1.1 | 1009.8 | 0.4 | SSW | 0 | 0.0 |
| 08.01.2026 | 02:47 | -0.2 | 94 | -1.0 | 1009.9 | 0.4 | S | 0 | 0.0 |
| 08.01.2026 | 02:52 | -0.2 | 94 | -1.0 | 1009.9 | 0.9 | S | 0 | 0.0 |
| 08.01.2026 | 02:57 | -0.2 | 94 | -1.0 | 1009.9 | 1.3 | SSW | 0 | 0.0 |
| 08.01.2026 | 03:02 | -0.2 | 94 | -1.0 | 1009.9 | 1.3 | SW | 0 | 0.0 |
| 08.01.2026 | 03:07 | -0.1 | 94 | -0.9 | 1009.9 | 2.2 | S | 0 | 0.0 |
| 08.01.2026 | 03:12 | -0.1 | 94 | -0.9 | 1009.8 | 2.2 | SSW | 0 | 0.0 |
| 08.01.2026 | 03:17 | -0.1 | 94 | -0.9 | 1009.8 | 1.8 | SSW | 0 | 0.0 |
| 08.01.2026 | 03:22 | -0.1 | 94 | -0.9 | 1009.8 | 2.2 | S | 0 | 0.0 |
| 08.01.2026 | 03:27 | -0.1 | 94 | -0.9 | 1009.8 | 0.4 | SSW | 0 | 0.0 |
| 08.01.2026 | 03:32 | -0.1 | 94 | -0.9 | 1009.8 | 0.4 | S | 0 | 0.0 |
| 08.01.2026 | 03:37 | -0.1 | 94 | -0.9 | 1009.7 | 0.9 | S | 0 | 0.0 |
| 08.01.2026 | 03:42 | -0.1 | 94 | -0.9 | 1009.7 | 1.3 | SSW | 0 | 0.0 |
| 08.01.2026 | 03:47 | -0.1 | 94 | -0.9 | 1009.6 | 2.7 | SSW | 0 | 0.0 |
| 08.01.2026 | 03:52 | -0.1 | 94 | -0.9 | 1009.5 | 1.3 | S | 0 | 0.0 |
| 08.01.2026 | 03:57 | -0.1 | 94 | -0.9 | 1009.6 | 0.4 | S | 0 | 0.0 |
| 08.01.2026 | 04:02 | 0.0 | 94 | -0.8 | 1009.4 | 1.3 | S | 0 | 0.0 |
| 08.01.2026 | 04:07 | 0.0 | 94 | -0.8 | 1009.4 | 3.1 | S | 0 | 0.0 |
| 08.01.2026 | 04:12 | 0.0 | 94 | -0.8 | 1009.5 | 1.3 | SSW | 0 | 0.0 |
| 08.01.2026 | 04:17 | 0.0 | 94 | -0.8 | 1009.4 | 1.3 | S | 0 | 0.0 |
| 08.01.2026 | 04:23 | 0.0 | 94 | -0.8 | 1009.4 | 1.3 | S | 0 | 0.0 |
| 08.01.2026 | 04:28 | 0.0 | 94 | -0.8 | 1009.3 | 0.9 | S | 0 | 0.0 |
| 08.01.2026 | 04:33 | 0.0 | 94 | -0.8 | 1009.3 | 1.8 | S | 0 | 0.0 |
| 08.01.2026 | 04:38 | 0.0 | 94 | -0.8 | 1009.3 | 0.9 | SW | 0 | 0.0 |
| 08.01.2026 | 04:43 | 0.0 | 94 | -0.8 | 1009.3 | 0.4 | SSO | 0 | 0.0 |
| 08.01.2026 | 04:48 | 0.0 | 94 | -0.8 | 1009.1 | 1.3 | S | 0 | 0.0 |
| 08.01.2026 | 04:53 | 0.0 | 94 | -0.8 | 1009.1 | 1.8 | S | 0 | 0.0 |
| 08.01.2026 | 04:58 | 0.1 | 94 | -0.8 | 1009.2 | 0.4 | SSW | 0 | 0.0 |
| 08.01.2026 | 05:03 | 0.1 | 94 | -0.8 | 1009.1 | 0.9 | SSO | 0 | 0.0 |
| 08.01.2026 | 05:08 | 0.1 | 94 | -0.8 | 1009.0 | 0.4 | S | 0 | 0.0 |
| 08.01.2026 | 05:13 | 0.1 | 94 | -0.8 | 1009.0 | 2.2 | S | 0 | 0.0 |
| 08.01.2026 | 05:18 | 0.1 | 94 | -0.8 | 1009.0 | 0.9 | S | 0 | 0.0 |
| 08.01.2026 | 05:23 | 0.1 | 94 | -0.8 | 1009.0 | 0.9 | S | 0 | 0.0 |
| 08.01.2026 | 05:28 | 0.1 | 94 | -0.8 | 1009.0 | 2.7 | S | 0 | 0.0 |
| 08.01.2026 | 05:33 | 0.1 | 94 | -0.8 | 1009.0 | 0.9 | SSW | 0 | 0.0 |
| 08.01.2026 | 05:38 | 0.2 | 94 | -0.7 | 1009.1 | 0.4 | S | 0 | 0.0 |
| 08.01.2026 | 05:43 | 0.2 | 94 | -0.7 | 1009.1 | 1.3 | S | 0 | 0.0 |
| 08.01.2026 | 05:48 | 0.2 | 94 | -0.7 | 1009.0 | 0.4 | SSO | 0 | 0.0 |
| 08.01.2026 | 05:53 | 0.2 | 94 | -0.7 | 1009.0 | 1.3 | S | 0 | 0.0 |
| 08.01.2026 | 05:58 | 0.3 | 94 | -0.6 | 1009.1 | 0.9 | SSW | 0 | 0.0 |
| 08.01.2026 | 06:03 | 0.3 | 94 | -0.6 | 1009.0 | 0.4 | SSW | 0 | 0.0 |
| 08.01.2026 | 06:08 | 0.3 | 94 | -0.6 | 1009.0 | 0.4 | SSW | 0 | 0.0 |
| 08.01.2026 | 06:13 | 0.3 | 94 | -0.6 | 1009.0 | 0.4 | OSO | 0 | 0.0 |
| 08.01.2026 | 06:18 | 0.3 | 94 | -0.6 | 1008.9 | 1.3 | OSO | 0 | 0.0 |
| 08.01.2026 | 06:23 | 0.3 | 94 | -0.6 | 1008.9 | 2.2 | SSW | 0 | 0.0 |
| 08.01.2026 | 06:28 | 0.3 | 94 | -0.6 | 1008.8 | 1.3 | SSW | 0 | 0.0 |
| 08.01.2026 | 06:33 | 0.4 | 94 | -0.5 | 1008.9 | 0.9 | SSW | 0 | 0.0 |
| 08.01.2026 | 06:38 | 0.4 | 94 | -0.5 | 1008.9 | 0.4 | S | 0 | 0.0 |
| 08.01.2026 | 06:43 | 0.4 | 94 | -0.5 | 1008.9 | 0.9 | S | 0 | 0.0 |
| 08.01.2026 | 06:48 | 0.4 | 94 | -0.5 | 1008.8 | 0.9 | S | 0 | 0.0 |
| 08.01.2026 | 06:53 | 0.4 | 94 | -0.5 | 1008.8 | 1.8 | SSW | 0 | 0.0 |
| 08.01.2026 | 06:58 | 0.4 | 94 | -0.5 | 1008.8 | 0.4 | SSW | 0 | 0.0 |
| 08.01.2026 | 07:03 | 0.4 | 94 | -0.5 | 1008.6 | 1.8 | SSW | 0 | 0.0 |
| 08.01.2026 | 07:08 | 0.5 | 94 | -0.4 | 1008.6 | 1.3 | SSW | 0 | 0.0 |
| 08.01.2026 | 07:14 | 0.5 | 94 | -0.4 | 1008.7 | 0.9 | OSO | 0 | 0.0 |
| 08.01.2026 | 07:19 | 0.5 | 94 | -0.4 | 1008.7 | 0.9 | S | 0 | 0.0 |
| 08.01.2026 | 07:24 | 0.5 | 94 | -0.4 | 1008.8 | 0.4 | SSO | 0 | 0.0 |
| 08.01.2026 | 07:29 | 0.5 | 94 | -0.4 | 1008.9 | 0.0 | S | 0 | 0.0 |
| 08.01.2026 | 07:34 | 0.5 | 94 | -0.4 | 1008.9 | 0.9 | S | 0 | 0.0 |
| 08.01.2026 | 07:39 | 0.5 | 94 | -0.4 | 1008.9 | 0.4 | S | 0 | 0.0 |
| 08.01.2026 | 07:44 | 0.5 | 94 | -0.4 | 1009.0 | 0.9 | S | 0 | 0.0 |
| 08.01.2026 | 07:49 | 0.5 | 94 | -0.4 | 1008.8 | 0.9 | SSO | 0 | 0.0 |
| 08.01.2026 | 07:54 | 0.5 | 94 | -0.4 | 1008.9 | 0.4 | SSO | 0 | 0.0 |
| 08.01.2026 | 07:59 | 0.5 | 94 | -0.4 | 1009.0 | 0.9 | SSO | 0 | 0.0 |
| 08.01.2026 | 08:04 | 0.5 | 94 | -0.4 | 1009.0 | 0.9 | S | 0 | 0.0 |
| 08.01.2026 | 08:09 | 0.6 | 94 | -0.3 | 1009.1 | 0.9 | S | 0 | 0.0 |
| 08.01.2026 | 08:14 | 0.6 | 94 | -0.3 | 1009.0 | 0.4 | S | 0 | 0.0 |
| 08.01.2026 | 08:19 | 0.6 | 94 | -0.3 | 1009.0 | 0.0 | S | 0 | 0.0 |
| 08.01.2026 | 08:24 | 0.6 | 94 | -0.3 | 1008.9 | 0.4 | SO | 0 | 0.0 |
| 08.01.2026 | 08:29 | 0.6 | 94 | -0.3 | 1008.7 | 0.4 | S | 0 | 0.0 |
| 08.01.2026 | 08:34 | 0.6 | 94 | -0.3 | 1008.8 | 0.0 | OSO | 0 | 0.0 |
| 08.01.2026 | 08:39 | 0.6 | 94 | -0.3 | 1008.8 | 0.0 | SO | 0 | 0.0 |
| 08.01.2026 | 08:44 | 0.6 | 94 | -0.3 | 1008.7 | 0.0 | SO | 0 | 0.0 |
| 08.01.2026 | 08:49 | 0.5 | 94 | -0.4 | 1008.6 | 0.9 | SO | 5 | 0.0 |
| 08.01.2026 | 08:54 | 0.5 | 94 | -0.4 | 1008.5 | 0.4 | OSO | 7 | 0.0 |
| 08.01.2026 | 08:59 | 0.5 | 94 | -0.4 | 1008.5 | 0.4 | SSO | 9 | 0.0 |
| 08.01.2026 | 09:04 | 0.6 | 94 | -0.3 | 1008.5 | 0.0 | S | 11 | 0.0 |
| 08.01.2026 | 09:09 | 0.5 | 94 | -0.4 | 1008.4 | 0.4 | OSO | 14 | 0.0 |
| 08.01.2026 | 09:14 | 0.6 | 94 | -0.3 | 1008.4 | 0.4 | S | 14 | 0.0 |
| 08.01.2026 | 09:19 | 0.6 | 94 | -0.3 | 1008.5 | 0.4 | SSO | 16 | 0.0 |
| 08.01.2026 | 09:24 | 0.6 | 94 | -0.3 | 1008.5 | 0.4 | SO | 14 | 0.0 |
| 08.01.2026 | 09:29 | 0.6 | 94 | -0.3 | 1008.4 | 0.0 | SO | 12 | 0.0 |
| 08.01.2026 | 09:34 | 0.6 | 94 | -0.3 | 1008.4 | 0.0 | O | 16 | 0.0 |
| 08.01.2026 | 09:39 | 0.6 | 94 | -0.3 | 1008.5 | 0.4 | SO | 19 | 0.0 |
| 08.01.2026 | 09:44 | 0.6 | 94 | -0.3 | 1008.5 | 0.9 | SO | 21 | 0.0 |
| 08.01.2026 | 09:49 | 0.6 | 94 | -0.3 | 1008.5 | 0.0 | S | 23 | 0.0 |
| 08.01.2026 | 09:54 | 0.6 | 94 | -0.3 | 1008.5 | 0.9 | S | 23 | 0.0 |
| 08.01.2026 | 10:00 | 0.6 | 94 | -0.3 | 1008.5 | 0.4 | SO | 25 | 0.0 |
| 08.01.2026 | 10:05 | 0.6 | 94 | -0.3 | 1008.5 | 0.4 | SSW | 32 | 0.0 |
| 08.01.2026 | 10:10 | 0.6 | 94 | -0.3 | 1008.5 | 1.3 | ONO | 33 | 0.0 |
| 08.01.2026 | 10:15 | 0.7 | 94 | -0.2 | 1008.4 | 0.0 | SSO | 35 | 0.0 |
| 08.01.2026 | 10:20 | 0.7 | 94 | -0.2 | 1008.3 | 0.4 | SSO | 44 | 0.0 |
| 08.01.2026 | 10:25 | 0.8 | 94 | -0.1 | 1008.4 | 0.4 | SSW | 54 | 0.0 |
| 08.01.2026 | 10:30 | 0.8 | 94 | -0.1 | 1008.4 | 0.9 | SSW | 58 | 0.0 |
| 08.01.2026 | 10:35 | 0.8 | 94 | -0.1 | 1008.3 | 0.4 | SSO | 63 | 0.0 |
| 08.01.2026 | 10:40 | 0.9 | 94 | 0.0 | 1008.2 | 0.0 | S | 65 | 0.0 |
| 08.01.2026 | 10:45 | 0.9 | 94 | 0.0 | 1008.2 | 0.4 | S | 69 | 0.0 |
| 08.01.2026 | 10:50 | 0.9 | 94 | 0.0 | 1008.2 | 0.4 | SO | 70 | 0.0 |
| 08.01.2026 | 10:55 | 0.9 | 94 | 0.0 | 1008.3 | 0.0 | SO | 74 | 0.0 |
| 08.01.2026 | 11:00 | 1.0 | 94 | 0.1 | 1008.3 | 1.3 | SSW | 70 | 0.0 |
| 08.01.2026 | 11:05 | 1.0 | 94 | 0.1 | 1008.3 | 0.9 | SSW | 72 | 0.0 |
| 08.01.2026 | 11:10 | 1.0 | 94 | 0.1 | 1008.2 | 0.9 | S | 67 | 0.0 |
| 08.01.2026 | 11:15 | 1.0 | 94 | 0.1 | 1008.3 | 1.3 | OSO | 76 | 0.0 |
| 08.01.2026 | 11:20 | 1.0 | 94 | 0.1 | 1008.2 | 0.4 | SO | 74 | 0.0 |
| 08.01.2026 | 11:25 | 1.0 | 94 | 0.1 | 1008.1 | 0.4 | S | 83 | 0.2 |
| 08.01.2026 | 11:30 | 1.0 | 94 | 0.1 | 1008.2 | 0.4 | S | 79 | 0.4 |
| 08.01.2026 | 11:35 | 1.0 | 94 | 0.1 | 1008.1 | 1.8 | S | 86 | 0.6 |
| 08.01.2026 | 11:40 | 1.0 | 94 | 0.1 | 1008.1 | 0.0 | SO | 76 | 0.6 |
| 08.01.2026 | 11:45 | 1.0 | 94 | 0.1 | 1008.1 | 0.4 | S | 65 | 0.6 |
| 08.01.2026 | 11:50 | 1.1 | 94 | 0.2 | 1008.0 | 0.0 | S | 77 | 0.6 |
| 08.01.2026 | 11:55 | 1.1 | 94 | 0.2 | 1008.0 | 1.3 | SO | 90 | 0.8 |
| 08.01.2026 | 12:00 | 1.1 | 94 | 0.2 | 1007.9 | 1.8 | S | 91 | 0.8 |
| 08.01.2026 | 12:05 | 1.1 | 94 | 0.2 | 1007.9 | 0.4 | SO | 86 | 0.8 |
| 08.01.2026 | 12:10 | 1.1 | 94 | 0.2 | 1007.8 | 0.4 | S | 97 | 0.8 |
| 08.01.2026 | 12:15 | 1.2 | 94 | 0.3 | 1007.8 | 0.0 | SSO | 95 | 1.0 |
| 08.01.2026 | 12:20 | 1.3 | 94 | 0.4 | 1007.6 | 0.4 | OSO | 113 | 1.0 |
| 08.01.2026 | 12:25 | 1.3 | 94 | 0.4 | 1007.5 | 1.3 | SO | 88 | 1.0 |
| 08.01.2026 | 12:30 | 1.3 | 94 | 0.4 | 1007.6 | 1.3 | S | 83 | 1.2 |
| 08.01.2026 | 12:35 | 1.3 | 94 | 0.4 | 1007.5 | 1.3 | SSW | 95 | 1.2 |
| 08.01.2026 | 12:40 | 1.4 | 94 | 0.5 | 1007.4 | 0.4 | SO | 93 | 1.2 |
| 08.01.2026 | 12:46 | 1.4 | 94 | 0.5 | 1007.3 | 0.9 | SO | 90 | 1.2 |
| 08.01.2026 | 12:51 | 1.4 | 94 | 0.5 | 1007.2 | 0.9 | S | 79 | 1.4 |
| 08.01.2026 | 12:56 | 1.4 | 94 | 0.5 | 1007.1 | 0.4 | SSW | 83 | 1.4 |
| 08.01.2026 | 13:01 | 1.4 | 94 | 0.5 | 1007.0 | 0.9 | SSO | 63 | 1.4 |
| 08.01.2026 | 13:06 | 1.4 | 94 | 0.5 | 1007.0 | 1.3 | S | 56 | 1.4 |
| 08.01.2026 | 13:11 | 1.4 | 94 | 0.5 | 1006.9 | 0.0 | SSO | 65 | 1.6 |
| 08.01.2026 | 13:16 | 1.3 | 94 | 0.4 | 1006.8 | 1.3 | SSO | 62 | 1.6 |
| 08.01.2026 | 13:21 | 1.3 | 94 | 0.4 | 1006.8 | 0.4 | SSO | 62 | 1.6 |
| 08.01.2026 | 13:26 | 1.3 | 94 | 0.4 | 1006.7 | 0.0 | S | 69 | 1.6 |
| 08.01.2026 | 13:31 | 1.3 | 94 | 0.4 | 1006.6 | 0.4 | OSO | 70 | 1.6 |
| 08.01.2026 | 13:36 | 1.4 | 94 | 0.5 | 1006.5 | 0.0 | SO | 86 | 1.6 |
| 08.01.2026 | 13:41 | 1.4 | 94 | 0.5 | 1006.4 | 0.0 | SO | 83 | 1.8 |
| 08.01.2026 | 13:46 | 1.5 | 94 | 0.6 | 1006.4 | 0.9 | SSO | 60 | 1.8 |
| 08.01.2026 | 13:51 | 1.5 | 94 | 0.6 | 1006.4 | 0.4 | S | 47 | 1.8 |
| 08.01.2026 | 13:56 | 1.5 | 94 | 0.6 | 1006.3 | 1.3 | S | 56 | 1.8 |
| 08.01.2026 | 14:01 | 1.4 | 94 | 0.5 | 1006.2 | 2.2 | SSO | 60 | 1.8 |
| 08.01.2026 | 14:06 | 1.4 | 94 | 0.5 | 1006.2 | 0.4 | S | 58 | 1.8 |
| 08.01.2026 | 14:11 | 1.4 | 94 | 0.5 | 1006.1 | 0.4 | SO | 56 | 1.8 |
| 08.01.2026 | 14:16 | 1.5 | 94 | 0.6 | 1006.0 | 0.9 | ONO | 62 | 2.0 |
| 08.01.2026 | 14:21 | 1.5 | 94 | 0.6 | 1006.0 | 0.4 | SO | 62 | 2.0 |
| 08.01.2026 | 14:26 | 1.5 | 94 | 0.6 | 1006.0 | 0.4 | SSO | 60 | 2.0 |
| 08.01.2026 | 14:31 | 1.5 | 94 | 0.6 | 1005.9 | 0.0 | OSO | 72 | 2.0 |
| 08.01.2026 | 14:36 | 1.6 | 94 | 0.7 | 1005.7 | 0.4 | OSO | 79 | 2.0 |
| 08.01.2026 | 14:41 | 1.6 | 94 | 0.7 | 1005.8 | 0.4 | SO | 60 | 2.0 |
| 08.01.2026 | 14:46 | 1.6 | 94 | 0.7 | 1005.8 | 0.9 | OSO | 49 | 2.0 |
| 08.01.2026 | 14:51 | 1.6 | 94 | 0.7 | 1005.7 | 0.9 | SSO | 42 | 2.2 |
| 08.01.2026 | 14:56 | 1.6 | 94 | 0.7 | 1005.7 | 0.4 | OSO | 33 | 2.2 |
| 08.01.2026 | 15:01 | 1.5 | 94 | 0.6 | 1005.7 | 0.4 | OSO | 30 | 2.2 |
| 08.01.2026 | 15:06 | 1.5 | 94 | 0.6 | 1005.7 | 1.3 | OSO | 28 | 2.2 |
| 08.01.2026 | 15:11 | 1.5 | 94 | 0.6 | 1005.8 | 0.0 | SSO | 26 | 2.2 |
| 08.01.2026 | 15:16 | 1.5 | 94 | 0.6 | 1005.8 | 0.4 | SO | 30 | 2.2 |
| 08.01.2026 | 15:21 | 1.4 | 94 | 0.5 | 1005.8 | 1.3 | ONO | 23 | 2.2 |
| 08.01.2026 | 15:26 | 1.4 | 94 | 0.5 | 1005.8 | 0.9 | SSO | 12 | 2.2 |
| 08.01.2026 | 15:32 | 1.3 | 94 | 0.4 | 1005.7 | 0.4 | OSO | 9 | 2.4 |
| 08.01.2026 | 15:37 | 1.3 | 94 | 0.4 | 1005.6 | 0.0 | SSO | 9 | 2.4 |
| 08.01.2026 | 15:42 | 1.2 | 94 | 0.3 | 1005.6 | 0.9 | S | 7 | 2.4 |
| 08.01.2026 | 15:47 | 1.1 | 94 | 0.2 | 1005.6 | 0.0 | SSO | 9 | 2.4 |
| 08.01.2026 | 15:52 | 1.1 | 94 | 0.2 | 1005.5 | 1.3 | SSO | 11 | 2.4 |
| 08.01.2026 | 15:57 | 1.1 | 94 | 0.2 | 1005.4 | 0.4 | S | 14 | 2.4 |
| 08.01.2026 | 16:02 | 1.1 | 94 | 0.2 | 1005.4 | 0.0 | S | 12 | 2.4 |
| 08.01.2026 | 16:07 | 1.1 | 94 | 0.2 | 1005.3 | 0.0 | S | 12 | 2.4 |
| 08.01.2026 | 16:12 | 1.2 | 94 | 0.3 | 1005.3 | 0.4 | SSO | 11 | 2.4 |
| 08.01.2026 | 16:17 | 1.2 | 94 | 0.3 | 1005.2 | 0.0 | SSO | 11 | 2.4 |
| 08.01.2026 | 16:22 | 1.2 | 94 | 0.3 | 1005.2 | 0.4 | S | 7 | 2.4 |
| 08.01.2026 | 16:27 | 1.2 | 94 | 0.3 | 1005.1 | 0.4 | OSO | 5 | 2.6 |
| 08.01.2026 | 16:32 | 1.2 | 94 | 0.3 | 1005.1 | 0.0 | O | 0 | 2.6 |
| 08.01.2026 | 16:37 | 1.2 | 94 | 0.3 | 1005.1 | 0.4 | SO | 0 | 2.6 |
| 08.01.2026 | 16:42 | 1.3 | 94 | 0.4 | 1005.1 | 0.9 | SO | 0 | 2.6 |
| 08.01.2026 | 16:47 | 1.3 | 94 | 0.4 | 1005.1 | 0.0 | SO | 0 | 2.6 |
| 08.01.2026 | 16:52 | 1.3 | 94 | 0.4 | 1005.1 | 0.0 | S | 0 | 2.6 |
| 08.01.2026 | 16:57 | 1.3 | 94 | 0.4 | 1004.9 | 0.9 | SSO | 0 | 2.6 |
| 08.01.2026 | 17:02 | 1.4 | 94 | 0.5 | 1004.9 | 0.4 | SSW | 0 | 2.6 |
| 08.01.2026 | 17:07 | 1.4 | 94 | 0.5 | 1004.7 | 0.9 | OSO | 0 | 2.6 |
| 08.01.2026 | 17:12 | 1.4 | 94 | 0.5 | 1004.6 | 0.0 | SSO | 0 | 2.8 |
| 08.01.2026 | 17:17 | 1.4 | 94 | 0.5 | 1004.6 | 0.9 | S | 0 | 2.8 |
| 08.01.2026 | 17:22 | 1.5 | 94 | 0.6 | 1004.6 | 0.4 | OSO | 0 | 2.8 |
| 08.01.2026 | 17:27 | 1.5 | 94 | 0.6 | 1004.5 | 0.4 | S | 0 | 2.8 |
| 08.01.2026 | 17:32 | 1.5 | 94 | 0.6 | 1004.5 | 0.4 | SSO | 0 | 2.8 |
| 08.01.2026 | 17:37 | 1.5 | 94 | 0.6 | 1004.4 | 0.9 | SSW | 0 | 3.0 |
| 08.01.2026 | 17:42 | 1.6 | 94 | 0.7 | 1004.4 | 1.8 | SW | 0 | 3.0 |
| 08.01.2026 | 17:47 | 1.6 | 94 | 0.7 | 1004.3 | 0.0 | SSO | 0 | 3.2 |
| 08.01.2026 | 17:52 | 1.6 | 94 | 0.7 | 1004.1 | 1.3 | OSO | 0 | 3.4 |
| 08.01.2026 | 17:57 | 1.6 | 94 | 0.7 | 1004.1 | 0.0 | SO | 0 | 3.6 |
| 08.01.2026 | 18:02 | 1.7 | 94 | 0.8 | 1004.0 | 0.9 | OSO | 0 | 3.6 |
| 08.01.2026 | 18:07 | 1.8 | 94 | 0.9 | 1004.0 | 0.4 | SSO | 0 | 3.8 |
| 08.01.2026 | 18:12 | 1.8 | 94 | 0.9 | 1003.9 | 0.9 | S | 0 | 4.0 |
| 08.01.2026 | 18:17 | 1.8 | 94 | 0.9 | 1003.8 | 0.4 | O | 0 | 4.2 |
| 08.01.2026 | 18:22 | 1.8 | 94 | 0.9 | 1003.7 | 0.0 | SSO | 0 | 4.2 |
| 08.01.2026 | 18:27 | 1.8 | 94 | 0.9 | 1003.7 | 0.9 | SO | 0 | 4.4 |
| 08.01.2026 | 18:33 | 1.9 | 94 | 1.0 | 1003.5 | 0.9 | SO | 0 | 4.4 |
| 08.01.2026 | 18:38 | 1.9 | 94 | 1.0 | 1003.5 | 0.9 | SO | 0 | 4.6 |
| 08.01.2026 | 18:43 | 1.9 | 94 | 1.0 | 1003.4 | 0.4 | S | 0 | 4.8 |
| 08.01.2026 | 18:48 | 2.0 | 94 | 1.1 | 1003.4 | 0.4 | S | 0 | 4.8 |
| 08.01.2026 | 18:53 | 2.1 | 94 | 1.2 | 1003.2 | 1.8 | SO | 0 | 5.0 |
| 08.01.2026 | 18:58 | 2.2 | 94 | 1.3 | 1003.2 | 0.4 | SO | 0 | 5.2 |
| 08.01.2026 | 19:03 | 2.3 | 94 | 1.4 | 1003.2 | 0.9 | SSW | 0 | 5.2 |
| 08.01.2026 | 19:08 | 2.4 | 94 | 1.5 | 1003.1 | 0.0 | SO | 0 | 5.4 |
| 08.01.2026 | 19:13 | 2.4 | 94 | 1.5 | 1002.9 | 0.4 | SO | 0 | 5.4 |
| 08.01.2026 | 19:18 | 2.4 | 94 | 1.5 | 1002.7 | 0.0 | SO | 0 | 5.6 |
| 08.01.2026 | 19:23 | 2.4 | 94 | 1.5 | 1002.6 | 0.4 | SO | 0 | 5.6 |
| 08.01.2026 | 19:28 | 2.4 | 94 | 1.5 | 1002.3 | 0.4 | SO | 0 | 5.8 |
| 08.01.2026 | 19:33 | 2.4 | 94 | 1.5 | 1002.2 | 0.9 | OSO | 0 | 5.8 |
| 08.01.2026 | 19:38 | 2.5 | 94 | 1.6 | 1002.0 | 0.4 | OSO | 0 | 5.8 |
| 08.01.2026 | 19:43 | 2.5 | 94 | 1.6 | 1001.9 | 1.3 | SO | 0 | 6.0 |
| 08.01.2026 | 19:48 | 2.5 | 94 | 1.6 | 1001.8 | 0.9 | O | 0 | 6.0 |
| 08.01.2026 | 19:53 | 2.5 | 94 | 1.6 | 1001.7 | 0.4 | OSO | 0 | 6.2 |
| 08.01.2026 | 19:58 | 2.4 | 94 | 1.5 | 1001.6 | 0.9 | ONO | 0 | 6.2 |
| 08.01.2026 | 20:03 | 2.4 | 94 | 1.5 | 1001.5 | 0.4 | OSO | 0 | 6.4 |
| 08.01.2026 | 20:08 | 2.4 | 94 | 1.5 | 1001.3 | 3.1 | O | 0 | 6.4 |
| 08.01.2026 | 20:13 | 2.4 | 94 | 1.5 | 1001.0 | 0.4 | OSO | 0 | 6.6 |
| 08.01.2026 | 20:18 | 2.3 | 94 | 1.4 | 1000.8 | 0.9 | ONO | 0 | 6.8 |
| 08.01.2026 | 20:23 | 2.3 | 94 | 1.4 | 1000.7 | 0.4 | O | 0 | 6.8 |
| 08.01.2026 | 20:28 | 2.3 | 94 | 1.4 | 1000.4 | 1.8 | OSO | 0 | 7.0 |
| 08.01.2026 | 20:33 | 2.3 | 94 | 1.4 | 1000.4 | 0.9 | SO | 0 | 7.0 |
| 08.01.2026 | 20:38 | 2.3 | 94 | 1.4 | 1000.3 | 0.9 | ONO | 0 | 7.2 |
| 08.01.2026 | 20:43 | 2.3 | 94 | 1.4 | 1000.1 | 2.2 | O | 0 | 7.2 |
| 08.01.2026 | 20:48 | 2.2 | 94 | 1.3 | 999.9 | 2.2 | O | 0 | 7.2 |
| 08.01.2026 | 20:53 | 2.2 | 94 | 1.3 | 999.9 | 1.8 | OSO | 0 | 7.4 |
| 08.01.2026 | 20:58 | 2.1 | 94 | 1.2 | 999.8 | 1.3 | O | 0 | 7.6 |
| 08.01.2026 | 21:03 | 2.1 | 94 | 1.2 | 999.6 | 3.6 | ONO | 0 | 7.8 |
| 08.01.2026 | 21:08 | 2.2 | 94 | 1.3 | 999.5 | 0.9 | ONO | 0 | 7.8 |
| 08.01.2026 | 21:13 | 2.2 | 94 | 1.3 | 999.3 | 0.4 | SO | 0 | 8.0 |
| 08.01.2026 | 21:18 | 2.2 | 94 | 1.3 | 999.1 | 0.4 | NO | 0 | 8.0 |
| 08.01.2026 | 21:24 | 2.2 | 94 | 1.3 | 999.0 | 2.7 | OSO | 0 | 8.2 |
| 08.01.2026 | 21:29 | 2.2 | 94 | 1.3 | 998.8 | 0.9 | SSO | 0 | 8.2 |
| 08.01.2026 | 21:34 | 2.3 | 94 | 1.4 | 998.5 | 2.7 | O | 0 | 8.4 |
| 08.01.2026 | 21:44 | 2.3 | 94 | 1.4 | 998.3 | 1.8 | SW | 0 | 8.8 |
| 08.01.2026 | 21:49 | 2.3 | 94 | 1.4 | 998.1 | 0.4 | SSO | 0 | 9.2 |
| 08.01.2026 | 21:54 | 2.3 | 94 | 1.4 | 997.9 | 0.9 | S | 0 | 9.4 |
| 08.01.2026 | 21:59 | 2.2 | 94 | 1.3 | 997.8 | 0.4 | OSO | 0 | 9.4 |
| 08.01.2026 | 22:04 | 2.2 | 94 | 1.3 | 997.7 | 0.4 | SSO | 0 | 9.4 |
| 08.01.2026 | 22:09 | 2.2 | 94 | 1.3 | 997.5 | 3.6 | SO | 0 | 9.6 |
| 08.01.2026 | 22:14 | 2.3 | 94 | 1.4 | 997.4 | 0.4 | SO | 0 | 9.6 |
| 08.01.2026 | 22:19 | 2.3 | 94 | 1.4 | 997.3 | 1.8 | O | 0 | 9.8 |
| 08.01.2026 | 22:24 | 2.3 | 94 | 1.4 | 997.1 | 0.4 | S | 0 | 10.0 |
| 08.01.2026 | 22:34 | 2.4 | 94 | 1.5 | 996.9 | 1.8 | SSO | 0 | 10.4 |
| 08.01.2026 | 22:39 | 2.4 | 94 | 1.5 | 996.7 | 0.9 | SO | 0 | 10.6 |
| 08.01.2026 | 22:49 | 2.4 | 94 | 1.5 | 996.5 | 1.8 | S | 0 | 11.0 |
| 08.01.2026 | 22:54 | 2.5 | 94 | 1.6 | 996.4 | 0.9 | OSO | 0 | 11.2 |
| 08.01.2026 | 23:04 | 2.5 | 94 | 1.6 | 996.4 | 0.9 | SO | 0 | 11.6 |
| 08.01.2026 | 23:09 | 2.6 | 94 | 1.7 | 996.3 | 1.3 | SSO | 0 | 11.8 |
| 08.01.2026 | 23:14 | 2.6 | 94 | 1.7 | 996.0 | 1.8 | SO | 0 | 12.2 |
| 08.01.2026 | 23:19 | 2.6 | 94 | 1.7 | 995.8 | 0.4 | O | 0 | 12.6 |
| 08.01.2026 | 23:24 | 2.7 | 94 | 1.8 | 995.6 | 0.9 | OSO | 0 | 12.8 |
| 08.01.2026 | 23:29 | 2.8 | 94 | 1.9 | 995.5 | 0.4 | O | 0 | 13.2 |
| 08.01.2026 | 23:34 | 2.8 | 94 | 1.9 | 995.5 | 0.9 | SO | 0 | 13.4 |
| 08.01.2026 | 23:39 | 2.9 | 94 | 2.0 | 995.2 | 0.9 | OSO | 0 | 13.6 |
| 08.01.2026 | 23:44 | 3.0 | 94 | 2.1 | 994.8 | 0.4 | O | 0 | 13.6 |
| 08.01.2026 | 23:49 | 3.0 | 94 | 2.1 | 994.5 | 2.7 | ONO | 0 | 13.8 |
| 08.01.2026 | 23:54 | 3.2 | 94 | 2.3 | 994.1 | 2.7 | SO | 0 | 14.0 |